NOZ8TF ENGM-LICA

Flight info

Callsign NOZ8TF
Flight time 3h 13m
Altitude 37000
Route VIPPA DCT ESOSI DCT GITER DCT BUMIL DCT KUMOM DCT AGOMO DCT EVINO DCT ARBUM
Aircraft B38M/M-SDE2E3GHIJ1LRWXY/LB2

Departure

Time 2026-05-04 09:57
Airport Oslo-Gardermoen International Airport (ENGM)

Arrival

Time 2026-05-04 13:10
Airport Lamezia Terme Sant'Eufemia International Airport (LICA)
Time Latitude Longitude Altitude Speed Heading
2026-05-04 09:27 60.19342 11.10267 683 ft 0 kts 16°
2026-05-04 09:46 60.19327 11.10258 679 ft 4 kts 14°
2026-05-04 09:47 60.19308 11.10260 686 ft 2 kts 332°
2026-05-04 09:47 60.19285 11.10284 680 ft 4 kts 333°
2026-05-04 09:49 60.19232 11.10367 687 ft 0 kts 286°
2026-05-04 09:51 60.19242 11.10339 683 ft 6 kts 320°
2026-05-04 09:51 60.19269 11.10383 687 ft 7 kts 91°
2026-05-04 09:51 60.19248 11.10544 680 ft 16 kts 105°
2026-05-04 09:51 60.19213 11.10785 687 ft 19 kts 106°
2026-05-04 09:52 60.19182 11.11008 685 ft 15 kts 106°
2026-05-04 09:52 60.19112 11.11103 684 ft 15 kts 196°
2026-05-04 09:52 60.18998 11.11036 685 ft 19 kts 196°
2026-05-04 09:52 60.18892 11.10976 684 ft 16 kts 195°
2026-05-04 09:53 60.18758 11.10899 684 ft 25 kts 197°
2026-05-04 09:53 60.18588 11.10800 683 ft 21 kts 196°
2026-05-04 09:53 60.18446 11.10718 682 ft 20 kts 196°
2026-05-04 09:53 60.18312 11.10641 683 ft 20 kts 196°
2026-05-04 09:54 60.18168 11.10558 682 ft 23 kts 196°
2026-05-04 09:54 60.18004 11.10462 681 ft 26 kts 196°
2026-05-04 09:54 60.17836 11.10365 680 ft 23 kts 196°
2026-05-04 09:54 60.17761 11.10331 680 ft 10 kts 173°
2026-05-04 09:55 60.17725 11.10469 680 ft 14 kts 106°
2026-05-04 09:55 60.17692 11.10700 677 ft 15 kts 104°
2026-05-04 09:55 60.17695 11.10846 677 ft 8 kts 25°
2026-05-04 09:55 60.17717 11.10859 682 ft 0 kts 17°
2026-05-04 09:56 60.17729 11.10866 680 ft 7 kts 17°
2026-05-04 09:56 60.17995 11.11019 684 ft 75 kts 16°
2026-05-04 09:56 60.18699 11.11427 686 ft 133 kts 16°
2026-05-04 09:56 60.19745 11.12050 725 ft 176 kts 14°
2026-05-04 09:57 60.20922 11.12841 1446 ft 175 kts 14°
2026-05-04 09:57 60.21967 11.14138 2229 ft 186 kts 44°
2026-05-04 09:57 60.22599 11.16457 2909 ft 194 kts 75°
2026-05-04 09:57 60.22668 11.19223 3545 ft 206 kts 91°
2026-05-04 09:58 60.22650 11.22242 4014 ft 226 kts 89°
2026-05-04 09:58 60.22663 11.25556 4435 ft 248 kts 89°
2026-05-04 09:58 60.22501 11.29137 4832 ft 265 kts 112°
2026-05-04 10:00 60.10846 11.30384 9089 ft 272 kts 213°
2026-05-04 10:00 60.09739 11.29210 9563 ft 272 kts 213°
2026-05-04 10:02 59.97955 11.16460 14523 ft 278 kts 215°
2026-05-04 10:04 59.85607 11.03566 19203 ft 296 kts 212°
2026-05-04 10:04 59.83721 11.01874 19796 ft 298 kts 212°
2026-05-04 10:04 59.81826 11.00163 20348 ft 300 kts 212°
2026-05-04 10:04 59.79921 10.98439 20936 ft 302 kts 212°
2026-05-04 10:05 59.78006 10.96705 21494 ft 303 kts 212°
2026-05-04 10:05 59.76081 10.94964 22062 ft 305 kts 212°
2026-05-04 10:05 59.74164 10.93231 22625 ft 307 kts 212°
2026-05-04 10:05 59.72191 10.91449 23195 ft 309 kts 212°
2026-05-04 10:06 59.70223 10.89675 23609 ft 313 kts 211°
2026-05-04 10:06 59.68229 10.87879 24020 ft 316 kts 211°
2026-05-04 10:06 59.66219 10.86070 24476 ft 319 kts 211°
2026-05-04 10:08 59.53575 10.74748 26059 ft 366 kts 211°
2026-05-04 10:08 59.51220 10.72651 26180 ft 377 kts 210°
2026-05-04 10:08 59.48803 10.70502 26429 ft 384 kts 210°
2026-05-04 10:08 59.46358 10.68330 26832 ft 387 kts 210°
2026-05-04 10:09 59.43896 10.66147 27187 ft 390 kts 210°
2026-05-04 10:09 59.41405 10.63942 27499 ft 395 kts 210°
2026-05-04 10:09 59.38895 10.61724 27909 ft 397 kts 210°
2026-05-04 10:09 59.36331 10.59462 28288 ft 400 kts 210°
2026-05-04 10:10 59.33820 10.57250 28663 ft 402 kts 210°
2026-05-04 10:10 59.31258 10.54996 29034 ft 405 kts 210°
2026-05-04 10:10 59.28677 10.52730 29606 ft 408 kts 210°
2026-05-04 10:10 59.26050 10.50427 29954 ft 410 kts 210°
2026-05-04 10:11 59.23471 10.48171 30236 ft 413 kts 210°
2026-05-04 10:11 59.20844 10.45876 30507 ft 415 kts 210°
2026-05-04 10:11 59.18201 10.43571 30734 ft 418 kts 210°
2026-05-04 10:11 59.15534 10.41248 30942 ft 422 kts 210°
2026-05-04 10:12 59.12844 10.38911 31169 ft 425 kts 210°
2026-05-04 10:12 59.10102 10.36532 31439 ft 427 kts 210°
2026-05-04 10:12 59.07414 10.34205 31671 ft 430 kts 210°
2026-05-04 10:12 59.04678 10.31839 31961 ft 430 kts 210°
2026-05-04 10:13 59.01945 10.29480 32340 ft 430 kts 210°
2026-05-04 10:13 58.99209 10.27122 32703 ft 430 kts 210°
2026-05-04 10:13 58.96471 10.24799 33072 ft 432 kts 207°
2026-05-04 10:13 58.93517 10.23427 33430 ft 445 kts 191°
2026-05-04 10:14 58.90392 10.23515 33742 ft 452 kts 184°
2026-05-04 10:14 58.87245 10.23826 33942 ft 454 kts 183°
2026-05-04 10:16 58.65147 10.26512 35973 ft 454 kts 182°
2026-05-04 10:16 58.61998 10.26903 36233 ft 454 kts 182°
2026-05-04 10:16 58.58847 10.27322 36471 ft 455 kts 179°
2026-05-04 10:16 58.55694 10.28003 36724 ft 456 kts 179°
2026-05-04 10:17 58.52533 10.28669 36827 ft 458 kts 179°
2026-05-04 10:17 58.49360 10.29321 36808 ft 459 kts 179°
2026-05-04 10:19 58.23998 10.34449 36813 ft 458 kts 179°
2026-05-04 10:19 58.17659 10.35719 36813 ft 458 kts 179°
2026-05-04 10:20 58.11318 10.36984 36820 ft 458 kts 179°
2026-05-04 10:20 58.04979 10.38245 36795 ft 458 kts 179°
2026-05-04 10:21 57.98634 10.39502 36824 ft 459 kts 179°
2026-05-04 10:21 57.92288 10.40755 36832 ft 459 kts 179°
2026-05-04 10:22 57.82793 10.42622 36837 ft 456 kts 179°
2026-05-04 10:23 57.76485 10.43856 36813 ft 456 kts 179°
2026-05-04 10:25 57.51302 10.48742 36846 ft 456 kts 179°
2026-05-04 10:25 57.44997 10.49955 36842 ft 455 kts 179°
2026-05-04 10:26 57.38692 10.51163 36855 ft 455 kts 179°
2026-05-04 10:26 57.32393 10.52366 36853 ft 455 kts 179°
2026-05-04 10:27 57.26089 10.53566 36861 ft 455 kts 179°
2026-05-04 10:27 57.19788 10.54762 36832 ft 455 kts 179°
2026-05-04 10:28 57.13487 10.55953 36864 ft 455 kts 179°
2026-05-04 10:28 57.07188 10.57139 36865 ft 455 kts 179°
2026-05-04 10:29 57.00890 10.58321 36870 ft 455 kts 179°
2026-05-04 10:29 56.94592 10.59500 36870 ft 455 kts 179°
2026-05-04 10:30 56.88300 10.60673 36859 ft 453 kts 179°
2026-05-04 10:30 56.82038 10.61837 36879 ft 452 kts 179°
2026-05-04 10:31 56.75782 10.62996 36886 ft 452 kts 179°
2026-05-04 10:32 56.53877 10.67023 36903 ft 452 kts 179°
2026-05-04 10:33 56.47620 10.68164 36909 ft 452 kts 179°
2026-05-04 10:33 56.41364 10.69302 36911 ft 452 kts 179°
2026-05-04 10:34 56.35151 10.70429 36896 ft 452 kts 179°
2026-05-04 10:34 56.28894 10.71559 36905 ft 452 kts 179°
2026-05-04 10:35 56.22644 10.72685 36921 ft 452 kts 179°
2026-05-04 10:35 56.16390 10.73807 36919 ft 451 kts 179°
2026-05-04 10:36 56.10138 10.74925 36900 ft 452 kts 179°
2026-05-04 10:36 56.03892 10.76039 36933 ft 451 kts 179°
2026-05-04 10:37 55.97653 10.77148 36931 ft 451 kts 179°
2026-05-04 10:37 55.91413 10.78254 36937 ft 451 kts 179°
2026-05-04 10:39 55.69578 10.82094 36944 ft 452 kts 179°
2026-05-04 10:40 55.63341 10.83187 36944 ft 452 kts 179°
2026-05-04 10:40 55.57081 10.84273 36949 ft 452 kts 179°
2026-05-04 10:41 55.50818 10.85360 36956 ft 452 kts 179°
2026-05-04 10:41 55.44556 10.86442 36955 ft 452 kts 179°
2026-05-04 10:42 55.38295 10.87521 36954 ft 452 kts 179°
2026-05-04 10:42 55.32032 10.88598 36953 ft 452 kts 179°
2026-05-04 10:43 55.25773 10.89670 36952 ft 451 kts 179°
2026-05-04 10:45 55.00811 10.93913 36960 ft 451 kts 179°
2026-05-04 10:45 54.94533 10.94973 36961 ft 450 kts 179°
2026-05-04 10:46 54.88354 10.96012 36963 ft 448 kts 179°
2026-05-04 10:46 54.82146 10.97053 36971 ft 448 kts 179°
2026-05-04 10:47 54.75936 10.98091 36956 ft 448 kts 179°
2026-05-04 10:47 54.69740 10.99124 36972 ft 447 kts 179°
2026-05-04 10:49 54.46008 11.03615 36975 ft 445 kts 178°
2026-05-04 10:50 54.39904 11.04788 36979 ft 444 kts 178°
2026-05-04 10:52 54.15323 11.09481 36970 ft 444 kts 178°
2026-05-04 10:52 54.09188 11.10644 36972 ft 444 kts 178°
2026-05-04 10:54 53.84602 11.15268 36977 ft 445 kts 178°
2026-05-04 10:56 53.59915 11.19857 36966 ft 447 kts 178°
2026-05-04 10:57 53.53732 11.20997 36969 ft 447 kts 178°
2026-05-04 10:57 53.47542 11.22136 36966 ft 447 kts 178°
2026-05-04 10:58 53.41358 11.23271 36966 ft 447 kts 179°
2026-05-04 10:58 53.35170 11.24402 36966 ft 447 kts 179°
2026-05-04 10:59 53.28986 11.25530 36963 ft 447 kts 179°
2026-05-04 10:59 53.22799 11.26655 36967 ft 447 kts 179°
2026-05-04 11:00 53.16618 11.27776 36960 ft 446 kts 179°
2026-05-04 11:02 52.92102 11.33030 36979 ft 445 kts 178°
2026-05-04 11:05 52.46188 11.42927 36976 ft 443 kts 178°
2026-05-04 11:06 52.40086 11.44227 36977 ft 442 kts 178°
2026-05-04 11:06 52.33994 11.45521 36976 ft 441 kts 178°
2026-05-04 11:10 51.91306 11.54488 36991 ft 441 kts 178°
2026-05-04 11:12 51.66992 11.59519 36985 ft 439 kts 178°
2026-05-04 11:12 51.60929 11.60764 36991 ft 439 kts 178°
2026-05-04 11:13 51.54870 11.62006 36989 ft 439 kts 178°
2026-05-04 11:13 51.48803 11.63247 36997 ft 440 kts 178°
2026-05-04 11:14 51.42735 11.64484 36995 ft 440 kts 177°
2026-05-04 11:16 51.18455 11.69401 36995 ft 439 kts 177°
2026-05-04 11:16 51.12387 11.70621 36997 ft 439 kts 177°
2026-05-04 11:17 51.06361 11.71830 37003 ft 440 kts 177°
2026-05-04 11:19 50.82083 11.76669 36998 ft 439 kts 177°
2026-05-04 11:19 50.76015 11.77871 36977 ft 439 kts 177°
2026-05-04 11:20 50.69934 11.79072 36993 ft 442 kts 177°
2026-05-04 11:20 50.63828 11.80274 36997 ft 442 kts 177°
2026-05-04 11:22 50.39413 11.85052 37015 ft 442 kts 177°
2026-05-04 11:23 50.33311 11.86238 37017 ft 442 kts 177°
2026-05-04 11:25 50.11933 11.90371 37024 ft 442 kts 177°
2026-05-04 11:25 50.05822 11.91545 37016 ft 442 kts 177°
2026-05-04 11:27 49.78323 11.96794 37074 ft 443 kts 176°
2026-05-04 11:28 49.72204 11.97953 37083 ft 443 kts 176°
2026-05-04 11:28 49.66090 11.99108 37084 ft 443 kts 176°
2026-05-04 11:29 49.59970 12.00262 37077 ft 443 kts 176°
2026-05-04 11:29 49.53853 12.01413 37053 ft 443 kts 176°
2026-05-04 11:33 49.11059 12.09380 36999 ft 443 kts 176°
2026-05-04 11:33 49.04940 12.10508 37012 ft 443 kts 176°
2026-05-04 11:34 48.98820 12.11634 37001 ft 443 kts 176°
2026-05-04 11:34 48.93736 12.12566 36999 ft 443 kts 176°
2026-05-04 11:35 48.87617 12.13687 36991 ft 443 kts 176°
2026-05-04 11:35 48.81506 12.14803 36996 ft 442 kts 176°
2026-05-04 11:36 48.75398 12.15915 36999 ft 442 kts 176°
2026-05-04 11:36 48.69290 12.17025 36998 ft 442 kts 176°
2026-05-04 11:37 48.63181 12.18133 36989 ft 442 kts 176°
2026-05-04 11:37 48.57073 12.19237 36994 ft 442 kts 176°
2026-05-04 11:38 48.50968 12.20338 36988 ft 443 kts 176°
2026-05-04 11:38 48.44834 12.21442 36996 ft 444 kts 176°
2026-05-04 11:39 48.38701 12.22543 36991 ft 444 kts 176°
2026-05-04 11:41 48.17276 12.26368 36995 ft 444 kts 176°
2026-05-04 11:41 48.11146 12.27457 36997 ft 444 kts 176°
2026-05-04 11:42 48.05014 12.28543 36993 ft 444 kts 176°
2026-05-04 11:42 47.98884 12.29627 36981 ft 444 kts 176°
2026-05-04 11:43 47.92756 12.30708 36986 ft 443 kts 176°
2026-05-04 11:43 47.86628 12.31786 36978 ft 443 kts 176°
2026-05-04 11:44 47.80506 12.32861 36985 ft 443 kts 176°
2026-05-04 11:44 47.74377 12.33934 36981 ft 443 kts 176°
2026-05-04 11:45 47.68256 12.35004 36965 ft 442 kts 176°
2026-05-04 11:45 47.62137 12.36070 36981 ft 443 kts 176°
2026-05-04 11:46 47.56018 12.37136 36995 ft 444 kts 175°
2026-05-04 11:46 47.49895 12.38221 36979 ft 443 kts 175°
2026-05-04 11:47 47.43771 12.39303 36986 ft 443 kts 175°
2026-05-04 11:47 47.37656 12.40382 37013 ft 443 kts 175°
2026-05-04 11:48 47.31526 12.41462 37017 ft 443 kts 175°
2026-05-04 11:48 47.25401 12.42537 37009 ft 443 kts 175°
2026-05-04 11:49 47.19285 12.43609 37034 ft 443 kts 175°
2026-05-04 11:49 47.13169 12.44678 36994 ft 443 kts 175°
2026-05-04 11:50 47.07032 12.45748 37048 ft 445 kts 175°
2026-05-04 11:50 47.00896 12.46816 37060 ft 444 kts 175°
2026-05-04 11:51 46.94761 12.47880 37073 ft 444 kts 175°
2026-05-04 11:51 46.88619 12.48944 37074 ft 444 kts 175°
2026-05-04 11:52 46.82476 12.50005 37103 ft 445 kts 175°
2026-05-04 11:52 46.76330 12.51065 37090 ft 445 kts 175°
2026-05-04 11:53 46.70227 12.52115 37103 ft 445 kts 175°
2026-05-04 11:53 46.64083 12.53169 37112 ft 445 kts 175°
2026-05-04 11:55 46.39476 12.57368 37082 ft 447 kts 175°
2026-05-04 11:56 46.33305 12.58415 37076 ft 446 kts 175°
2026-05-04 11:56 46.27128 12.59460 37063 ft 446 kts 175°
2026-05-04 11:57 46.20957 12.60503 37098 ft 447 kts 175°
2026-05-04 11:57 46.14782 12.61543 37113 ft 447 kts 175°
2026-05-04 11:58 46.08604 12.62582 37102 ft 447 kts 175°
2026-05-04 11:58 46.02428 12.63618 37103 ft 447 kts 175°
2026-05-04 11:59 45.96256 12.64651 37102 ft 447 kts 175°
2026-05-04 11:59 45.90124 12.65675 37097 ft 447 kts 175°
2026-05-04 12:00 45.83910 12.66710 37088 ft 447 kts 176°
2026-05-04 12:00 45.77724 12.67739 37082 ft 448 kts 175°
2026-05-04 12:01 45.71564 12.68761 37088 ft 449 kts 175°
2026-05-04 12:02 45.49828 12.72348 37096 ft 449 kts 175°
2026-05-04 12:03 45.43617 12.73368 37094 ft 449 kts 176°
2026-05-04 12:03 45.37406 12.74386 37100 ft 449 kts 176°
2026-05-04 12:04 45.31193 12.75402 37100 ft 449 kts 176°
2026-05-04 12:04 45.24978 12.76416 37094 ft 450 kts 176°
2026-05-04 12:05 45.18765 12.77427 37096 ft 449 kts 176°
2026-05-04 12:05 45.12552 12.78437 37096 ft 450 kts 176°
2026-05-04 12:06 45.06319 12.79448 37100 ft 451 kts 176°
2026-05-04 12:06 45.00157 12.81037 37094 ft 454 kts 161°
2026-05-04 12:07 44.94212 12.84111 37089 ft 455 kts 162°
2026-05-04 12:07 44.88250 12.87176 37102 ft 456 kts 162°
2026-05-04 12:08 44.82297 12.90253 37094 ft 456 kts 162°
2026-05-04 12:08 44.76383 12.93306 37104 ft 456 kts 162°
2026-05-04 12:09 44.70424 12.96375 37103 ft 456 kts 162°
2026-05-04 12:09 44.64461 12.99439 37103 ft 457 kts 162°
2026-05-04 12:10 44.58487 13.02502 37101 ft 457 kts 162°
2026-05-04 12:10 44.52512 13.05560 37103 ft 457 kts 162°
2026-05-04 12:11 44.46536 13.08610 37103 ft 457 kts 163°
2026-05-04 12:11 44.40557 13.11655 37097 ft 458 kts 163°
2026-05-04 12:12 44.34561 13.14704 37101 ft 458 kts 163°
2026-05-04 12:12 44.28566 13.17745 37097 ft 459 kts 163°
2026-05-04 12:14 44.04489 13.29890 37104 ft 461 kts 163°
2026-05-04 12:15 43.98460 13.32915 37103 ft 461 kts 163°
2026-05-04 12:15 43.92428 13.35935 37101 ft 461 kts 163°
2026-05-04 12:16 43.86396 13.38948 37101 ft 461 kts 163°
2026-05-04 12:16 43.80402 13.41935 37095 ft 461 kts 163°
2026-05-04 12:17 43.74362 13.44940 37103 ft 462 kts 163°
2026-05-04 12:17 43.68319 13.47940 37102 ft 462 kts 163°
2026-05-04 12:18 43.62271 13.50935 37101 ft 462 kts 163°
2026-05-04 12:18 43.56207 13.53931 37106 ft 464 kts 163°
2026-05-04 12:19 43.50127 13.56930 37100 ft 464 kts 163°
2026-05-04 12:19 43.44040 13.59925 37104 ft 464 kts 163°
2026-05-04 12:20 43.37954 13.62914 37094 ft 465 kts 163°
2026-05-04 12:20 43.31852 13.65904 37103 ft 466 kts 163°
2026-05-04 12:21 43.25749 13.68888 37102 ft 466 kts 163°
2026-05-04 12:21 43.19645 13.71866 37093 ft 466 kts 163°
2026-05-04 12:22 43.13525 13.74846 37101 ft 468 kts 163°
2026-05-04 12:22 43.07391 13.77826 37102 ft 468 kts 163°
2026-05-04 12:23 43.01255 13.80801 37108 ft 468 kts 163°
2026-05-04 12:23 42.95112 13.83772 37103 ft 470 kts 163°
2026-05-04 12:24 42.89977 13.86253 37114 ft 471 kts 163°
2026-05-04 12:24 42.83813 13.89223 37105 ft 469 kts 163°
2026-05-04 12:25 42.77663 13.92180 37091 ft 469 kts 163°
2026-05-04 12:25 42.71486 13.95144 37106 ft 473 kts 163°
2026-05-04 12:26 42.65283 13.98114 37105 ft 473 kts 163°
2026-05-04 12:26 42.59079 14.01078 37107 ft 473 kts 163°
2026-05-04 12:27 42.52881 14.04034 37100 ft 474 kts 163°
2026-05-04 12:27 42.46653 14.06997 37103 ft 475 kts 163°
2026-05-04 12:28 42.40422 14.09956 37102 ft 475 kts 163°
2026-05-04 12:28 42.34186 14.12911 37090 ft 475 kts 164°
2026-05-04 12:29 42.27963 14.15853 37103 ft 479 kts 164°
2026-05-04 12:29 42.21676 14.18819 37104 ft 478 kts 164°
2026-05-04 12:30 42.15391 14.21779 37102 ft 479 kts 164°
2026-05-04 12:30 42.09106 14.24732 37104 ft 479 kts 164°
2026-05-04 12:31 42.02804 14.27687 37097 ft 479 kts 164°
2026-05-04 12:31 41.96504 14.30634 37103 ft 479 kts 164°
2026-05-04 12:32 41.87054 14.35043 37116 ft 480 kts 164°
2026-05-04 12:33 41.80751 14.37976 37111 ft 479 kts 164°
2026-05-04 12:33 41.74445 14.40906 37102 ft 479 kts 164°
2026-05-04 12:34 41.68136 14.43830 37099 ft 480 kts 164°
2026-05-04 12:34 41.61791 14.46764 37121 ft 484 kts 164°
2026-05-04 12:35 41.55440 14.49696 37124 ft 483 kts 164°
2026-05-04 12:35 41.49086 14.52622 37126 ft 483 kts 164°
2026-05-04 12:36 41.42722 14.55547 37133 ft 485 kts 165°
2026-05-04 12:36 41.36334 14.58478 37131 ft 485 kts 164°
2026-05-04 12:37 41.29947 14.61401 37138 ft 485 kts 165°
2026-05-04 12:37 41.23562 14.64317 37138 ft 487 kts 165°
2026-05-04 12:38 41.17130 14.67249 37143 ft 490 kts 165°
2026-05-04 12:38 41.10690 14.70179 37176 ft 490 kts 165°
2026-05-04 12:39 41.04246 14.73104 37174 ft 490 kts 165°
2026-05-04 12:39 40.97783 14.76032 37177 ft 492 kts 165°
2026-05-04 12:40 40.91302 14.78962 37169 ft 492 kts 165°
2026-05-04 12:40 40.84819 14.81887 37172 ft 493 kts 165°
2026-05-04 12:41 40.78328 14.84808 37154 ft 494 kts 165°
2026-05-04 12:41 40.71834 14.87726 37163 ft 498 kts 165°
2026-05-04 12:42 40.65278 14.90666 37164 ft 497 kts 165°
2026-05-04 12:42 40.58731 14.93596 37163 ft 496 kts 165°
2026-05-04 12:43 40.52183 14.96518 37158 ft 498 kts 165°
2026-05-04 12:43 40.45563 14.99469 37164 ft 499 kts 165°
2026-05-04 12:44 40.39032 15.02372 37172 ft 499 kts 165°
2026-05-04 12:44 40.32454 15.05290 37160 ft 501 kts 165°
2026-05-04 12:45 40.25822 15.08229 37159 ft 503 kts 166°
2026-05-04 12:45 40.19194 15.11157 37165 ft 503 kts 166°
2026-05-04 12:46 40.12567 15.14081 37155 ft 503 kts 165°
2026-05-04 12:46 40.05918 15.17008 37165 ft 505 kts 165°
2026-05-04 12:47 39.99254 15.19935 37160 ft 505 kts 165°
2026-05-04 12:47 39.95931 15.21392 36319 ft 506 kts 166°
2026-05-04 12:47 39.92571 15.22864 35476 ft 508 kts 166°
2026-05-04 12:47 39.89231 15.24326 34773 ft 506 kts 166°
2026-05-04 12:48 39.85862 15.25799 33547 ft 516 kts 166°
2026-05-04 12:48 39.82470 15.27283 32914 ft 511 kts 166°
2026-05-04 12:48 39.79107 15.28751 32010 ft 511 kts 166°
2026-05-04 12:48 39.75718 15.30229 31062 ft 513 kts 165°
2026-05-04 12:49 39.72402 15.31887 30352 ft 512 kts 155°
2026-05-04 12:49 39.69398 15.34383 29297 ft 515 kts 143°
2026-05-04 12:49 39.66716 15.37498 28171 ft 518 kts 138°
2026-05-04 12:49 39.64074 15.40654 27332 ft 514 kts 138°
2026-05-04 12:50 39.61448 15.43763 26647 ft 507 kts 138°
2026-05-04 12:50 39.58866 15.46818 26090 ft 498 kts 139°
2026-05-04 12:50 39.56319 15.49826 25438 ft 493 kts 139°
2026-05-04 12:50 39.53797 15.52802 24810 ft 488 kts 139°
2026-05-04 12:51 39.51302 15.55742 24181 ft 483 kts 139°
2026-05-04 12:51 39.48859 15.58618 23528 ft 479 kts 139°
2026-05-04 12:51 39.46405 15.61504 22829 ft 474 kts 139°
2026-05-04 12:51 39.43982 15.64352 22218 ft 467 kts 139°
2026-05-04 12:52 39.41592 15.67158 21608 ft 461 kts 139°
2026-05-04 12:52 39.39229 15.69929 21010 ft 456 kts 139°
2026-05-04 12:52 39.36895 15.72664 20426 ft 450 kts 139°
2026-05-04 12:52 39.34585 15.75367 19842 ft 445 kts 139°
2026-05-04 12:53 39.32302 15.78037 19270 ft 440 kts 139°
2026-05-04 12:53 39.30044 15.80675 18702 ft 436 kts 139°
2026-05-04 12:53 39.27810 15.83283 18118 ft 431 kts 139°
2026-05-04 12:53 39.25599 15.85862 17544 ft 425 kts 139°
2026-05-04 12:54 39.23422 15.88399 17013 ft 419 kts 139°
2026-05-04 12:54 39.21269 15.90906 16495 ft 414 kts 139°
2026-05-04 12:54 39.19146 15.93375 15990 ft 409 kts 138°
2026-05-04 12:54 39.17047 15.95815 15486 ft 404 kts 138°
2026-05-04 12:55 39.14970 15.98227 14994 ft 400 kts 138°
2026-05-04 12:55 39.12926 16.00600 14516 ft 396 kts 138°
2026-05-04 12:55 39.10885 16.02966 14041 ft 393 kts 138°
2026-05-04 12:55 39.08860 16.05311 13532 ft 390 kts 138°
2026-05-04 12:56 39.06854 16.07633 13046 ft 386 kts 138°
2026-05-04 12:56 39.04870 16.09927 12582 ft 382 kts 137°
2026-05-04 12:56 39.02904 16.12199 12126 ft 378 kts 137°
2026-05-04 12:56 39.00959 16.14445 11667 ft 374 kts 137°
2026-05-04 12:57 38.99035 16.16665 11302 ft 368 kts 137°
2026-05-04 12:57 38.97156 16.18831 11138 ft 357 kts 137°
2026-05-04 12:57 38.95338 16.20926 10967 ft 346 kts 137°
2026-05-04 12:57 38.93570 16.22961 10800 ft 336 kts 137°
2026-05-04 12:58 38.91856 16.24933 10640 ft 326 kts 137°
2026-05-04 12:58 38.90291 16.26980 10457 ft 317 kts 123°
2026-05-04 12:58 38.89225 16.29399 10303 ft 307 kts 117°
2026-05-04 12:58 38.88204 16.31774 10105 ft 301 kts 117°
2026-05-04 12:59 38.87207 16.34089 9777 ft 300 kts 117°
2026-05-04 12:59 38.86201 16.36422 9442 ft 298 kts 117°
2026-05-04 12:59 38.85199 16.38749 9117 ft 297 kts 118°
2026-05-04 12:59 38.84204 16.41054 8798 ft 295 kts 118°
2026-05-04 13:00 38.83214 16.43347 8490 ft 293 kts 118°
2026-05-04 13:00 38.82231 16.45627 8183 ft 291 kts 118°
2026-05-04 13:00 38.81252 16.47889 7883 ft 289 kts 118°
2026-05-04 13:00 38.80292 16.50110 7571 ft 282 kts 118°
2026-05-04 13:01 38.79354 16.52279 7295 ft 274 kts 118°
2026-05-04 13:01 38.78566 16.54445 7088 ft 263 kts 103°
2026-05-04 13:01 38.78266 16.56725 6959 ft 256 kts 98°
2026-05-04 13:01 38.77988 16.58953 6874 ft 251 kts 98°
2026-05-04 13:02 38.77869 16.61170 6675 ft 249 kts 81°
2026-05-04 13:02 38.78501 16.63209 6351 ft 248 kts 53°
2026-05-04 13:02 38.79756 16.64687 6002 ft 246 kts 25°
2026-05-04 13:02 38.81402 16.65141 5649 ft 244 kts 354°
2026-05-04 13:03 38.82985 16.64492 5360 ft 239 kts 327°
2026-05-04 13:03 38.84337 16.63283 5162 ft 235 kts 323°
2026-05-04 13:03 38.85496 16.61859 4971 ft 230 kts 300°
2026-05-04 13:03 38.86119 16.59979 4793 ft 229 kts 285°
2026-05-04 13:04 38.86490 16.58017 4567 ft 223 kts 281°
2026-05-04 13:04 38.86781 16.56117 4343 ft 213 kts 279°
2026-05-04 13:04 38.87029 16.54279 4126 ft 205 kts 278°
2026-05-04 13:04 38.87253 16.52495 3916 ft 200 kts 278°
2026-05-04 13:05 38.87465 16.50741 3733 ft 198 kts 277°
2026-05-04 13:05 38.87673 16.48990 3514 ft 198 kts 277°
2026-05-04 13:05 38.87873 16.47281 3306 ft 188 kts 277°
2026-05-04 13:05 38.88061 16.45666 3087 ft 179 kts 277°
2026-05-04 13:06 38.88247 16.44105 2825 ft 175 kts 277°
2026-05-04 13:06 38.88421 16.42602 2635 ft 169 kts 277°
2026-05-04 13:06 38.88600 16.41126 2403 ft 165 kts 277°
2026-05-04 13:06 38.88769 16.39695 2228 ft 159 kts 275°
2026-05-04 13:07 38.88923 16.38302 2021 ft 158 kts 276°
2026-05-04 13:07 38.89083 16.36886 1816 ft 161 kts 276°
2026-05-04 13:07 38.89245 16.35464 1589 ft 160 kts 275°
2026-05-04 13:07 38.89402 16.34098 1396 ft 144 kts 277°
2026-05-04 13:08 38.89542 16.32863 1177 ft 136 kts 278°
2026-05-04 13:08 38.89681 16.31677 977 ft 133 kts 279°
2026-05-04 13:08 38.89817 16.30502 810 ft 133 kts 277°
2026-05-04 13:08 38.89951 16.29327 609 ft 133 kts 278°
2026-05-04 13:09 38.90094 16.28160 416 ft 130 kts 277°
2026-05-04 13:09 38.90219 16.27023 224 ft 128 kts 276°
2026-05-04 13:09 38.90348 16.25897 67 ft 126 kts 276°
2026-05-04 13:09 38.90466 16.24863 36 ft 101 kts 278°
2026-05-04 13:10 38.90548 16.24162 29 ft 57 kts 278°
2026-05-04 13:10 38.90590 16.23790 33 ft 28 kts 278°
2026-05-04 13:10 38.90674 16.23584 36 ft 24 kts 308°
2026-05-04 13:10 38.90738 16.23490 35 ft 14 kts 325°
2026-05-04 13:11 38.90823 16.23501 34 ft 10 kts 34°
2026-05-04 13:11 38.90838 16.23593 34 ft 14 kts 99°
2026-05-04 13:11 38.90821 16.23732 34 ft 18 kts 99°
2026-05-04 13:11 38.90804 16.23873 34 ft 14 kts 97°
2026-05-04 13:12 38.90790 16.24008 34 ft 17 kts 98°
2026-05-04 13:12 38.90778 16.24154 34 ft 13 kts 72°
2026-05-04 13:12 38.90829 16.24251 34 ft 13 kts 76°
2026-05-04 13:12 38.90822 16.24350 34 ft 8 kts 98°
2026-05-04 13:13 38.90816 16.24404 34 ft 10 kts 99°
2026-05-04 13:13 38.90807 16.24483 34 ft 5 kts 99°
2026-05-04 13:13 38.90823 16.24511 34 ft 4 kts
2026-05-04 13:13 38.90846 16.24514 34 ft 3 kts
2026-05-04 13:14 38.90866 16.24526 34 ft 2 kts 51°
2026-05-04 13:14 38.90870 16.24533 34 ft 0 kts 52°